Nantucket, MA

5:26 AM EDT on April 30, 2017 (GMT -0400)
Nantucket Memorial

Weather History for KACK - January, 2015

Change the Weather History Date:

Friday, January 23, 2015

  Actual Average Record
Temperature  
Mean Temperature 32 °F -  
Max Temperature 37 °F 39 °F 51 °F (1952)
Min Temperature 28 °F 24 °F -1 °F (1970)
Degree Days  
Heating Degree Days 32    
Moisture  
Dew Point 21 °F    
Average Humidity 63    
Maximum Humidity 82    
Minimum Humidity 42    
Precipitation  
Precipitation 0.00 in - - ()
Sea Level Pressure  
Sea Level Pressure 30.17 in    
Wind  
Wind Speed 12 mph (West)    
Max Wind Speed 18 mph    
Max Gust Speed -    
Visibility 10 miles    
Events      
Averages and records for this station are not official NWS values.
T = Trace of Precipitation, MM = Missing Value Source: NWS Daily Summary

Daily Weather History Graph

Daily Weather History Graph

Search for Another Location

Airport or City:

Trip Planner

Search our weather history database for the weather conditions in past years. The results will help you decide how hot, cold, wet, or windy it might be!

Date:

Astronomy

Jan. 23, 2015 Rise Set
Actual Time 6:59 AM EST 4:45 PM EST
Civil Twilight 6:29 AM EST 5:15 PM EST
Nautical Twilight 5:55 AM EST 5:48 PM EST
Astronomical Twilight 5:23 AM EST 6:21 PM EST
Moon 8:46 AM EST (1/23) 8:53 PM EST (1/23)
Length of Visible Light 10h 45m
Length of Day
9h 46m
Waxing Crescent, 14% of the Moon is Illuminated
Jan 23
Waxing Crescent
Jan 26
First Quarter
Feb 3
Full
Feb 11
Last Quarter
Feb 18
New

Hourly Weather History & Observations

Time (EST) Temp. Windchill Dew Point Humidity Pressure Visibility Wind Dir Wind Speed Gust Speed Precip Events Conditions
12:53 AM 32.0 °F 24.2 °F 24.1 °F 73% 30.21 in 10.0 mi NW 9.2 mph - N/A   Clear
1:53 AM 32.0 °F 22.5 °F 23.0 °F 69% 30.22 in 10.0 mi NW 12.7 mph - N/A   Clear
2:53 AM 30.9 °F 21.2 °F 21.9 °F 69% 30.23 in 10.0 mi NW 12.7 mph - N/A   Clear
3:53 AM 30.0 °F 19.1 °F 19.9 °F 66% 30.22 in 10.0 mi NW 15.0 mph - N/A   Clear
4:53 AM 28.9 °F 18.2 °F 19.9 °F 69% 30.23 in 10.0 mi NNW 13.8 mph - N/A   Clear
5:53 AM 28.0 °F 17.0 °F 18.0 °F 66% 30.25 in 10.0 mi NW 13.8 mph - N/A   Clear
6:53 AM 28.0 °F 17.0 °F 17.1 °F 63% 30.26 in 10.0 mi NW 13.8 mph - N/A   Clear
7:53 AM 28.0 °F 17.0 °F 17.1 °F 63% 30.27 in 10.0 mi NW 13.8 mph - N/A   Clear
8:53 AM 30.0 °F 20.5 °F 17.1 °F 59% 30.28 in 10.0 mi WNW 11.5 mph - N/A   Clear
9:53 AM 30.9 °F 20.7 °F 12.9 °F 47% 30.28 in 10.0 mi NW 13.8 mph - N/A   Clear
10:53 AM 32.0 °F 23.0 °F 12.9 °F 45% 30.25 in 10.0 mi NW 11.5 mph - N/A   Clear
11:53 AM 33.1 °F 24.4 °F 12.0 °F 42% 30.22 in 10.0 mi WNW 11.5 mph - N/A   Clear
12:53 PM 34.0 °F 27.2 °F 12.9 °F 42% 30.19 in 10.0 mi West 8.1 mph - N/A   Clear
1:53 PM 34.0 °F 25.5 °F 15.1 °F 46% 30.16 in 10.0 mi WSW 11.5 mph - N/A   Clear
2:53 PM 34.0 °F 25.5 °F 17.1 °F 50% 30.15 in 10.0 mi WSW 11.5 mph - N/A   Clear
3:53 PM 33.1 °F 23.4 °F 19.9 °F 59% 30.14 in 10.0 mi SW 13.8 mph - N/A   Clear
4:53 PM 33.1 °F 21.9 °F 21.9 °F 64% 30.12 in 10.0 mi WSW 18.4 mph - N/A   Clear
5:53 PM 34.0 °F 23.4 °F 25.0 °F 70% 30.11 in 10.0 mi WSW 17.3 mph - N/A   Clear
6:53 PM 36.0 °F 26.3 °F 27.0 °F 70% 30.10 in 10.0 mi WSW 16.1 mph - N/A   Clear
7:53 PM 37.0 °F 27.7 °F 28.9 °F 73% 30.09 in 10.0 mi WSW 16.1 mph - N/A   Clear
8:53 PM 37.0 °F 28.1 °F 30.0 °F 76% 30.06 in 10.0 mi WSW 15.0 mph - N/A   Clear
9:53 PM 37.0 °F 29.3 °F 30.0 °F 76% 30.04 in 10.0 mi WSW 11.5 mph - N/A   Clear
10:53 PM 37.0 °F 28.9 °F 30.0 °F 76% 30.02 in 10.0 mi WSW 12.7 mph - N/A   Clear
11:53 PM 37.0 °F 31.0 °F 32.0 °F 82% 29.98 in 9.0 mi WSW 8.1 mph - N/A   Clear